����������;��������(kWh)
2017-10-09 00:00;75,75
2017-10-09 00:15;80
2017-10-09 00:30;78,65
2017-10-09 00:45;78,9
2017-10-09 01:00;77,7
2017-10-09 01:15;80,75
2017-10-09 01:30;78,6
2017-10-09 01:45;82,5
2017-10-09 02:00;80,75
2017-10-09 02:15;82,05
2017-10-09 02:30;80,15
2017-10-09 02:45;82,55
2017-10-09 03:00;81,7
2017-10-09 03:15;82,6
2017-10-09 03:30;80,1
2017-10-09 03:45;81,55
2017-10-09 04:00;79,85
2017-10-09 04:15;81,6
2017-10-09 04:30;81,4
2017-10-09 04:45;82,55
2017-10-09 05:00;80,35
2017-10-09 05:15;83,55
2017-10-09 05:30;81,05
2017-10-09 05:45;82,7
2017-10-09 06:00;84,95
2017-10-09 06:15;85,35
2017-10-09 06:30;85,55
2017-10-09 06:45;87,55
2017-10-09 07:00;87,1
2017-10-09 07:15;85,75
2017-10-09 07:30;89
2017-10-09 07:45;92,45
2017-10-09 08:00;95,45
2017-10-09 08:15;94,4
2017-10-09 08:30;101,85
2017-10-09 08:45;117,1
2017-10-09 09:00;120,9
2017-10-09 09:15;129,7
2017-10-09 09:30;129,5
2017-10-09 09:45;132,8
2017-10-09 10:00;130,55
2017-10-09 10:15;134,4
2017-10-09 10:30;137,55
2017-10-09 10:45;141,6
2017-10-09 11:00;138,4
2017-10-09 11:15;147,45
2017-10-09 11:30;148,55
2017-10-09 11:45;150,65
2017-10-09 12:00;153,05
2017-10-09 12:15;160,8
2017-10-09 12:30;161,6
2017-10-09 12:45;156,4
2017-10-09 13:00;158,7
2017-10-09 13:15;166,4
2017-10-09 13:30;166,1
2017-10-09 13:45;168,5
2017-10-09 14:00;168,7
2017-10-09 14:15;163,2
2017-10-09 14:30;157,45
2017-10-09 14:45;159,85
2017-10-09 15:00;164,15
2017-10-09 15:15;154,55
2017-10-09 15:30;149,7
2017-10-09 15:45;147,75
2017-10-09 16:00;149,25
2017-10-09 16:15;138
2017-10-09 16:30;133,4
2017-10-09 16:45;134,65
2017-10-09 17:00;137
2017-10-09 17:15;138,1
2017-10-09 17:30;135,45
2017-10-09 17:45;131,2
2017-10-09 18:00;131,85
2017-10-09 18:15;129,95
2017-10-09 18:30;121,75
2017-10-09 18:45;118,8
2017-10-09 19:00;125,65
2017-10-09 19:15;124,2
2017-10-09 19:30;118,5
2017-10-09 19:45;119,35
2017-10-09 20:00;116,7
2017-10-09 20:15;116,65
2017-10-09 20:30;113,25
2017-10-09 20:45;115,7
2017-10-09 21:00;108,55
2017-10-09 21:15;107,9
2017-10-09 21:30;104,75
2017-10-09 21:45;94,95
2017-10-09 22:00;95,9
2017-10-09 22:15;94,65
2017-10-09 22:30;96,35
2017-10-09 22:45;92
2017-10-09 23:00;94,35
2017-10-09 23:15;86,25
2017-10-09 23:30;81,25
2017-10-09 23:45;82,55
2017-10-10 00:00;82
2017-10-10 00:15;86,8
2017-10-10 00:30;83,95
2017-10-10 00:45;85
2017-10-10 01:00;83,45
2017-10-10 01:15;84,3
2017-10-10 01:30;80
2017-10-10 01:45;79,9
2017-10-10 02:00;80
2017-10-10 02:15;78,35
2017-10-10 02:30;79,05
2017-10-10 02:45;77,9
2017-10-10 03:00;77,85
2017-10-10 03:15;77,25
2017-10-10 03:30;77,2
2017-10-10 03:45;79,5
2017-10-10 04:00;77,45
2017-10-10 04:15;78,95
2017-10-10 04:30;76,2
2017-10-10 04:45;78,3
2017-10-10 05:00;77,15
2017-10-10 05:15;78,85
2017-10-10 05:30;81,5
2017-10-10 05:45;78,25
2017-10-10 06:00;84,55
2017-10-10 06:15;82,65
2017-10-10 06:30;85,9
2017-10-10 06:45;87,65
2017-10-10 07:00;89,75
2017-10-10 07:15;90,3
2017-10-10 07:30;89,35
2017-10-10 07:45;91,1
2017-10-10 08:00;97,3
2017-10-10 08:15;94
2017-10-10 08:30;99,05
2017-10-10 08:45;104,85
2017-10-10 09:00;117,8
2017-10-10 09:15;127,35
2017-10-10 09:30;135,75
2017-10-10 09:45;134,9
2017-10-10 10:00;139,1
2017-10-10 10:15;143,2
2017-10-10 10:30;143,65
2017-10-10 10:45;146,25
2017-10-10 11:00;145,8
2017-10-10 11:15;153,5
2017-10-10 11:30;156,6
2017-10-10 11:45;162,25
2017-10-10 12:00;163,6
2017-10-10 12:15;161,5
2017-10-10 12:30;164,05
2017-10-10 12:45;164,9
2017-10-10 13:00;158,75
2017-10-10 13:15;172,5
2017-10-10 13:30;175,25
2017-10-10 13:45;179,35
2017-10-10 14:00;172,75
2017-10-10 14:15;171,9
2017-10-10 14:30;169,65
2017-10-10 14:45;165,35
2017-10-10 15:00;162,4
2017-10-10 15:15;155,4
2017-10-10 15:30;153,3
2017-10-10 15:45;151,2
2017-10-10 16:00;145
2017-10-10 16:15;140,1
2017-10-10 16:30;135,05
2017-10-10 16:45;133,1
2017-10-10 17:00;129,3
2017-10-10 17:15;129,85
2017-10-10 17:30;133,95
2017-10-10 17:45;127,7
2017-10-10 18:00;123,3
2017-10-10 18:15;124,3
2017-10-10 18:30;129,15
2017-10-10 18:45;124,2
2017-10-10 19:00;125,65
2017-10-10 19:15;121,2
2017-10-10 19:30;125,05
2017-10-10 19:45;121
2017-10-10 20:00;118,55
2017-10-10 20:15;112,85
2017-10-10 20:30;112
2017-10-10 20:45;109,7
2017-10-10 21:00;105,95
2017-10-10 21:15;104,25
2017-10-10 21:30;97,85
2017-10-10 21:45;100,75
2017-10-10 22:00;95,5
2017-10-10 22:15;95,9
2017-10-10 22:30;91,7
2017-10-10 22:45;86,75
2017-10-10 23:00;89
2017-10-10 23:15;80,85
2017-10-10 23:30;78,75
2017-10-10 23:45;78,35
2017-10-11 00:00;79,85
2017-10-11 00:15;81,6
2017-10-11 00:30;80,4
2017-10-11 00:45;80,95
2017-10-11 01:00;79,1
2017-10-11 01:15;82,45
2017-10-11 01:30;80,05
2017-10-11 01:45;81,2
2017-10-11 02:00;79,85
2017-10-11 02:15;81,2
2017-10-11 02:30;79,7
2017-10-11 02:45;77,5
2017-10-11 03:00;79,9
2017-10-11 03:15;80,05
2017-10-11 03:30;81,15
2017-10-11 03:45;79,65
2017-10-11 04:00;84,1
2017-10-11 04:15;84,25
2017-10-11 04:30;82,05
2017-10-11 04:45;85,2
2017-10-11 05:00;82,1
2017-10-11 05:15;83,1
2017-10-11 05:30;86,45
2017-10-11 05:45;86,25
2017-10-11 06:00;89,1
2017-10-11 06:15;89
2017-10-11 06:30;98,9
2017-10-11 06:45;99,5
2017-10-11 07:00;98,6
2017-10-11 07:15;100,9
2017-10-11 07:30;96,3
2017-10-11 07:45;100,15
2017-10-11 08:00;102,2
2017-10-11 08:15;106,55
2017-10-11 08:30;102,25
2017-10-11 08:45;110,5
2017-10-11 09:00;115,85
2017-10-11 09:15;115,25
2017-10-11 09:30;122,35
2017-10-11 09:45;127
2017-10-11 10:00;138,95
2017-10-11 10:15;135,45
2017-10-11 10:30;137,8
2017-10-11 10:45;144,6
2017-10-11 11:00;148,8
2017-10-11 11:15;152,95
2017-10-11 11:30;149
2017-10-11 11:45;149,5
2017-10-11 12:00;151,3
2017-10-11 12:15;152,85
2017-10-11 12:30;161,7
2017-10-11 12:45;152,75
2017-10-11 13:00;152,85
2017-10-11 13:15;155,4
2017-10-11 13:30;153,85
2017-10-11 13:45;157,7
2017-10-11 14:00;156
2017-10-11 14:15;158,3
2017-10-11 14:30;158,05
2017-10-11 14:45;152,6
2017-10-11 15:00;153
2017-10-11 15:15;146,05
2017-10-11 15:30;147
2017-10-11 15:45;144,65
2017-10-11 16:00;138,85
2017-10-11 16:15;137,5
2017-10-11 16:30;137,45
2017-10-11 16:45;138,3
2017-10-11 17:00;133,8
2017-10-11 17:15;131,5
2017-10-11 17:30;128,25
2017-10-11 17:45;123,3
2017-10-11 18:00;125,35
2017-10-11 18:15;125
2017-10-11 18:30;119,05
2017-10-11 18:45;115,4
2017-10-11 19:00;121,65
2017-10-11 19:15;119,5
2017-10-11 19:30;121,5
2017-10-11 19:45;115,55
2017-10-11 20:00;111,45
2017-10-11 20:15;108,15
2017-10-11 20:30;103,95
2017-10-11 20:45;101,5
2017-10-11 21:00;102,3
2017-10-11 21:15;98,4
2017-10-11 21:30;98,65
2017-10-11 21:45;97,7
2017-10-11 22:00;94,35
2017-10-11 22:15;93,45
2017-10-11 22:30;94,7
2017-10-11 22:45;90,4
2017-10-11 23:00;93,85
2017-10-11 23:15;86,5
2017-10-11 23:30;85,9
2017-10-11 23:45;83,5
2017-10-12 00:00;83,6
2017-10-12 00:15;86,1
2017-10-12 00:30;85,15
2017-10-12 00:45;86,7
2017-10-12 01:00;83,3
2017-10-12 01:15;84,55
2017-10-12 01:30;84,3
2017-10-12 01:45;86,5
2017-10-12 02:00;86,7
2017-10-12 02:15;84,7
2017-10-12 02:30;85,9
2017-10-12 02:45;83,65
2017-10-12 03:00;84,3
2017-10-12 03:15;86,95
2017-10-12 03:30;84
2017-10-12 03:45;82,8
2017-10-12 04:00;80,05
2017-10-12 04:15;79,8
2017-10-12 04:30;81
2017-10-12 04:45;80,35
2017-10-12 05:00;82,3
2017-10-12 05:15;80,8
2017-10-12 05:30;83,35
2017-10-12 05:45;85,85
2017-10-12 06:00;85,9
2017-10-12 06:15;87,4
2017-10-12 06:30;88,4
2017-10-12 06:45;93,35
2017-10-12 07:00;100,8
2017-10-12 07:15;97,9
2017-10-12 07:30;99,95
2017-10-12 07:45;98,25
2017-10-12 08:00;100,05
2017-10-12 08:15;104,7
2017-10-12 08:30;106,15
2017-10-12 08:45;116,75
2017-10-12 09:00;120,5
2017-10-12 09:15;129,9
2017-10-12 09:30;131,9
2017-10-12 09:45;127,4
2017-10-12 10:00;128,9
2017-10-12 10:15;136,1
2017-10-12 10:30;135,8
2017-10-12 10:45;143,9
2017-10-12 11:00;149,5
2017-10-12 11:15;151,6
2017-10-12 11:30;153,1
2017-10-12 11:45;158,25
2017-10-12 12:00;151,35
2017-10-12 12:15;156,95
2017-10-12 12:30;162,6
2017-10-12 12:45;157,15
2017-10-12 13:00;156,65
2017-10-12 13:15;157,9
2017-10-12 13:30;162,7
2017-10-12 13:45;161,85
2017-10-12 14:00;158,05
2017-10-12 14:15;160,35
2017-10-12 14:30;159,95
2017-10-12 14:45;158,45
2017-10-12 15:00;209,8
2017-10-12 15:15;192,1
2017-10-12 15:30;164,8
2017-10-12 15:45;154,1
2017-10-12 16:00;148,85
2017-10-12 16:15;155,15
2017-10-12 16:30;145,7
2017-10-12 16:45;141,2
2017-10-12 17:00;133,9
2017-10-12 17:15;145
2017-10-12 17:30;134,3
2017-10-12 17:45;136,25
2017-10-12 18:00;136,65
2017-10-12 18:15;135,9
2017-10-12 18:30;124,65
2017-10-12 18:45;119,75
2017-10-12 19:00;126,9
2017-10-12 19:15;127,95
2017-10-12 19:30;122,5
2017-10-12 19:45;123,85
2017-10-12 20:00;122,8
2017-10-12 20:15;123
2017-10-12 20:30;120,05
2017-10-12 20:45;116,2
2017-10-12 21:00;114,85
2017-10-12 21:15;112,95
2017-10-12 21:30;110,1
2017-10-12 21:45;106,3
2017-10-12 22:00;100,5
2017-10-12 22:15;98,4
2017-10-12 22:30;100,75
2017-10-12 22:45;96,9
2017-10-12 23:00;96,5
2017-10-12 23:15;90,2
2017-10-12 23:30;90,7
2017-10-12 23:45;83,8
2017-10-13 00:00;85,25
2017-10-13 00:15;87,75
2017-10-13 00:30;86,4
2017-10-13 00:45;86,95
2017-10-13 01:00;88,55
2017-10-13 01:15;93,4
2017-10-13 01:30;88
2017-10-13 01:45;89,7
2017-10-13 02:00;89,95
2017-10-13 02:15;88,8
2017-10-13 02:30;87,65
2017-10-13 02:45;90,2
2017-10-13 03:00;88,25
2017-10-13 03:15;84,95
2017-10-13 03:30;89,1
2017-10-13 03:45;85,85
2017-10-13 04:00;86,05
2017-10-13 04:15;87,35
2017-10-13 04:30;89,55
2017-10-13 04:45;87,2
2017-10-13 05:00;84,9
2017-10-13 05:15;86,7
2017-10-13 05:30;86,95
2017-10-13 05:45;88,15
2017-10-13 06:00;93,65
2017-10-13 06:15;93,1
2017-10-13 06:30;94,35
2017-10-13 06:45;96,8
2017-10-13 07:00;102,1
2017-10-13 07:15;103,2
2017-10-13 07:30;102,35
2017-10-13 07:45;123,5
2017-10-13 08:00;100,9
2017-10-13 08:15;109,25
2017-10-13 08:30;111,65
2017-10-13 08:45;119,4
2017-10-13 09:00;123,1
2017-10-13 09:15;130,25
2017-10-13 09:30;129,7
2017-10-13 09:45;129,4
2017-10-13 10:00;135,7
2017-10-13 10:15;139,9
2017-10-13 10:30;146,8
2017-10-13 10:45;148,1
2017-10-13 11:00;158,2
2017-10-13 11:15;153,85
2017-10-13 11:30;154,55
2017-10-13 11:45;157,4
2017-10-13 12:00;154,5
2017-10-13 12:15;157,45
2017-10-13 12:30;157,15
2017-10-13 12:45;157,6
2017-10-13 13:00;159,1
2017-10-13 13:15;161
2017-10-13 13:30;168,6
2017-10-13 13:45;165,1
2017-10-13 14:00;160,65
2017-10-13 14:15;166,95
2017-10-13 14:30;160,35
2017-10-13 14:45;159,45
2017-10-13 15:00;156,8
2017-10-13 15:15;143,95
2017-10-13 15:30;145,2
2017-10-13 15:45;146,1
2017-10-13 16:00;144,05
2017-10-13 16:15;137,7
2017-10-13 16:30;130,7
2017-10-13 16:45;130
2017-10-13 17:00;129,4
2017-10-13 17:15;129,25
2017-10-13 17:30;121,55
2017-10-13 17:45;118
2017-10-13 18:00;114,8
2017-10-13 18:15;114,4
2017-10-13 18:30;113,35
2017-10-13 18:45;109,3
2017-10-13 19:00;112,35
2017-10-13 19:15;113,05
2017-10-13 19:30;110,4
2017-10-13 19:45;113,1
2017-10-13 20:00;103,1
2017-10-13 20:15;107
2017-10-13 20:30;107,15
2017-10-13 20:45;107,1
2017-10-13 21:00;101,8
2017-10-13 21:15;98,3
2017-10-13 21:30;98,55
2017-10-13 21:45;97,5
2017-10-13 22:00;95,55
2017-10-13 22:15;89,35
2017-10-13 22:30;90,2
2017-10-13 22:45;88,3
2017-10-13 23:00;92,6
2017-10-13 23:15;85,65
2017-10-13 23:30;82,8
2017-10-13 23:45;85,6
2017-10-14 00:00;83,75
2017-10-14 00:15;82,85
2017-10-14 00:30;79,9
2017-10-14 00:45;83,75
2017-10-14 01:00;82,25
2017-10-14 01:15;85,3
2017-10-14 01:30;83,8
2017-10-14 01:45;83
2017-10-14 02:00;82,4
2017-10-14 02:15;82,8
2017-10-14 02:30;84,1
2017-10-14 02:45;81,8
2017-10-14 03:00;83,3
2017-10-14 03:15;83,1
2017-10-14 03:30;82,45
2017-10-14 03:45;83,05
2017-10-14 04:00;82,05
2017-10-14 04:15;84,05
2017-10-14 04:30;81,35
2017-10-14 04:45;82,7
2017-10-14 05:00;82,55
2017-10-14 05:15;81,95
2017-10-14 05:30;84,8
2017-10-14 05:45;80,85
2017-10-14 06:00;83,65
2017-10-14 06:15;81,55
2017-10-14 06:30;83,3
2017-10-14 06:45;81,6
2017-10-14 07:00;81,6
2017-10-14 07:15;83,65
2017-10-14 07:30;77,85
2017-10-14 07:45;76,15
2017-10-14 08:00;73,15
2017-10-14 08:15;71,6
2017-10-14 08:30;72,6
2017-10-14 08:45;70,65
2017-10-14 09:00;74,85
2017-10-14 09:15;72,3
2017-10-14 09:30;70,8
2017-10-14 09:45;73,3
2017-10-14 10:00;72,95
2017-10-14 10:15;74,2
2017-10-14 10:30;74,75
2017-10-14 10:45;71,85
2017-10-14 11:00;76,55
2017-10-14 11:15;76,1
2017-10-14 11:30;75,45
2017-10-14 11:45;76,35
2017-10-14 12:00;73,5
2017-10-14 12:15;75,7
2017-10-14 12:30;75,1
2017-10-14 12:45;78,9
2017-10-14 13:00;78,95
2017-10-14 13:15;78,8
2017-10-14 13:30;80,4
2017-10-14 13:45;78,45
2017-10-14 14:00;79,45
2017-10-14 14:15;76,95
2017-10-14 14:30;78,3
2017-10-14 14:45;78,15
2017-10-14 15:00;75,75
2017-10-14 15:15;75,7
2017-10-14 15:30;76,4
2017-10-14 15:45;73,8
2017-10-14 16:00;76,45
2017-10-14 16:15;76
2017-10-14 16:30;74,95
2017-10-14 16:45;78,25
2017-10-14 17:00;79,15
2017-10-14 17:15;79,3
2017-10-14 17:30;85,95
2017-10-14 17:45;86,55
2017-10-14 18:00;89,15
2017-10-14 18:15;86,9
2017-10-14 18:30;86,8
2017-10-14 18:45;86,45
2017-10-14 19:00;87,95
2017-10-14 19:15;93,75
2017-10-14 19:30;90,95
2017-10-14 19:45;90,95
2017-10-14 20:00;91,2
2017-10-14 20:15;89,65
2017-10-14 20:30;92,3
2017-10-14 20:45;90,65
2017-10-14 21:00;92,15
2017-10-14 21:15;88
2017-10-14 21:30;87,3
2017-10-14 21:45;89,75
2017-10-14 22:00;86,2
2017-10-14 22:15;86,5
2017-10-14 22:30;82,15
2017-10-14 22:45;82,95
2017-10-14 23:00;83,6
2017-10-14 23:15;77,4
2017-10-14 23:30;78,75
2017-10-14 23:45;78,25
2017-10-15 00:00;77,5
2017-10-15 00:15;78,3
2017-10-15 00:30;79,05
2017-10-15 00:45;79,75
2017-10-15 01:00;78,75
2017-10-15 01:15;79,35
2017-10-15 01:30;78,5
2017-10-15 01:45;79,15
2017-10-15 02:00;78,85
2017-10-15 02:15;78,4
2017-10-15 02:30;81,7
2017-10-15 02:45;79,55
2017-10-15 03:00;79,35
2017-10-15 03:15;79,65
2017-10-15 03:30;78,15
2017-10-15 03:45;80,6
2017-10-15 04:00;78,7
2017-10-15 04:15;80
2017-10-15 04:30;78,2
2017-10-15 04:45;79,7
2017-10-15 05:00;79,7
2017-10-15 05:15;78,5
2017-10-15 05:30;80,1
2017-10-15 05:45;80,1
2017-10-15 06:00;82,4
2017-10-15 06:15;83,4
2017-10-15 06:30;86,25
2017-10-15 06:45;84,55
2017-10-15 07:00;84,6
2017-10-15 07:15;84,55
2017-10-15 07:30;81,25
2017-10-15 07:45;77,45
2017-10-15 08:00;74,85
2017-10-15 08:15;77,05
2017-10-15 08:30;77,9
2017-10-15 08:45;73,4
2017-10-15 09:00;74,1
2017-10-15 09:15;74,95
2017-10-15 09:30;73,2
2017-10-15 09:45;72,6
2017-10-15 10:00;72,1
2017-10-15 10:15;74,8
2017-10-15 10:30;74,1
2017-10-15 10:45;74,65
2017-10-15 11:00;79,95
2017-10-15 11:15;79,5
2017-10-15 11:30;82
2017-10-15 11:45;77,55
2017-10-15 12:00;78,75
2017-10-15 12:15;76,6
2017-10-15 12:30;77,3
2017-10-15 12:45;79,2
2017-10-15 13:00;81,1
2017-10-15 13:15;83,25
2017-10-15 13:30;80,8
2017-10-15 13:45;80,15
2017-10-15 14:00;84,6
2017-10-15 14:15;83,9
2017-10-15 14:30;86,4
2017-10-15 14:45;82,2
2017-10-15 15:00;79,2
2017-10-15 15:15;80,65
2017-10-15 15:30;77,8
2017-10-15 15:45;78,5
2017-10-15 16:00;75
2017-10-15 16:15;76,1
2017-10-15 16:30;81,15
2017-10-15 16:45;77,1
2017-10-15 17:00;79,3
2017-10-15 17:15;77,2
2017-10-15 17:30;78,95
2017-10-15 17:45;84,75
2017-10-15 18:00;81,95
2017-10-15 18:15;81,15
2017-10-15 18:30;83
2017-10-15 18:45;82,8
2017-10-15 19:00;85,2
2017-10-15 19:15;85,45
2017-10-15 19:30;89,05
2017-10-15 19:45;89,9
2017-10-15 20:00;85,7
2017-10-15 20:15;89,7
2017-10-15 20:30;87,65
2017-10-15 20:45;88,25
2017-10-15 21:00;87,7
2017-10-15 21:15;85,8
2017-10-15 21:30;87,4
2017-10-15 21:45;84,95
2017-10-15 22:00;84,05
2017-10-15 22:15;84,45
2017-10-15 22:30;86,7
2017-10-15 22:45;85,3
2017-10-15 23:00;85
2017-10-15 23:15;82,9
2017-10-15 23:30;83,6
2017-10-15 23:45;82,55

